GW2722 Weather Reports


time (UTC)temp
C
wind
direction
speed
KPH
gust
KPH
rain 1hr
cm
rain 24hr
cm
rain mn
cm
humidity
%
barometer
mb
20260902211603 32 18 4.8 14.5 0.00 0.00 0.00 61 1017.3
20260902210100 33 327 1.6 8.0 0.00 0.00 0.00 59 1017.3
20260902204642 32 352 4.8 12.9 0.00 0.00 0.00 61 1017.5
20260902203106 32 338 3.2 12.9 0.00 0.00 0.00 64 1017.7
20260902201603 32 349 4.8 14.5 0.00 0.00 0.00 60 1017.8
20260902200105 32 317 4.8 14.5 0.00 0.00 0.00 60 1017.9
20260902194603 32 349 3.2 16.1 0.00 0.00 0.00 63 1018.1
20260902193105 32 339 4.8 14.5 0.00 0.00 0.00 61 1018.2
20260902191604 32 332 9.7 16.1 0.00 0.00 0.00 60 1018.3
20260902190105 32 360 3.2 16.1 0.00 0.00 0.00 61 1018.4
20260902184655 32 5 6.4 16.1 0.00 0.00 0.00 60 1018.5
20260902183113 32 306 8.0 16.1 0.00 0.00 0.00 61 1018.6
20260902181613 32 344 4.8 14.5 0.00 0.00 0.00 66 1018.7
20260902180104 32 19 1.6 8.0 0.00 0.00 0.00 65 1018.8
20260902174608 32 5 4.8 12.9 0.00 0.00 0.00 63 1018.9
20260902173119 32 48 4.8 14.5 0.00 0.00 0.00 64 1019.1
20260902171607 32 336 3.2 11.3 0.00 0.00 0.00 62 1019.3
20260902170100 31 327 3.2 12.9 0.00 0.00 0.00 64 1019.3
20260902164607 31 327 1.6 12.9 0.00 0.00 0.00 67 1019.5
20260902163105 31 312 8.0 16.1 0.00 0.00 0.00 65 1019.5
20260902161610 31 271 4.8 12.9 0.00 0.00 0.00 68 1019.6
20260902160104 31 348 3.2 8.0 0.00 0.00 0.00 68 1019.6
20260902154607 30 355 3.2 12.9 0.00 0.00 0.00 74 1019.6
20260902153110 30 306 4.8 12.9 0.00 0.00 0.00 72 1019.6
20260902151607 30 135 1.6 11.3 0.00 0.00 0.00 71 1019.7
20260902150117 30 44 1.6 6.4 0.00 0.00 0.00 72 1019.8
20260902144603 29 55 0.0 6.4 0.00 0.00 0.00 76 1019.8
20260902143105 28 0 3.2 8.0 0.00 0.00 0.00 77 1019.6
20260902141603 28 42 0.0 6.4 0.00 0.00 0.00 79 1019.6
20260902140118 27 355 1.6 6.4 0.00 0.00 0.00 81 1019.6
20260902134619 26 36 1.6 4.8 0.00 0.00 0.00 84 1019.7
20260902133112 26 100 0.0 3.2 0.00 0.00 0.00 86 1019.7
20260902131604 25 0 0.0 3.2 0.00 0.00 0.00 90 1019.7
20260902130115 23 0 0.0 1.6 0.00 0.00 0.00 95 1019.7
20260902124605 22 0 0.0 0.0 0.00 0.00 0.00 96 1019.6
20260902123112 22 0 0.0 0.0 0.00 0.00 0.00 97 1019.6
20260902121604 21 0 0.0 0.0 0.00 0.00 0.00 98 1019.5
20260902120126 20 0 0.0 0.0 0.00 0.00 0.00 98 1019.3
20260902114625 20 0 0.0 0.0 0.00 0.00 0.00 98 1019.1
20260902113100 20 0 0.0 0.0 0.00 0.00 0.00 97 1018.8
20260902111611 20 0 0.0 0.0 0.00 0.00 0.00 98 1018.9
20260902110106 20 0 0.0 0.0 0.00 0.00 0.00 97 1018.8
20260902104616 20 0 0.0 0.0 0.00 0.00 0.00 97 1018.7
20260902103126 20 0 0.0 0.0 0.00 0.00 0.00 97 1018.6
20260902101609 20 0 0.0 0.0 0.00 0.00 0.00 97 1018.7
20260902094601 20 0 0.0 0.0 0.00 0.00 0.00 97 1018.6
20260902093105 20 0 0.0 0.0 0.00 0.00 0.00 97 1018.5
20260902091603 20 0 0.0 0.0 0.00 0.00 0.00 97 1018.5
20260902090101 20 0 0.0 0.0 0.00 0.00 0.00 97 1018.3
20260902084603 20 0 0.0 0.0 0.00 0.00 0.00 96 1018.2
20260902083101 20 0 0.0 0.0 0.00 0.00 0.00 97 1018.0
20260902081602 20 0 0.0 0.0 0.00 0.00 0.00 97 1018.0
20260902074601 21 0 0.0 0.0 0.00 0.00 0.00 96 1017.9
20260902073108 21 0 0.0 0.0 0.00 0.00 0.00 96 1017.9
20260902071603 21 0 0.0 0.0 0.00 0.00 0.00 96 1017.9
20260902070107 21 0 0.0 0.0 0.00 0.00 0.00 96 1018.0
20260902064606 21 0 0.0 0.0 0.00 0.00 0.00 96 1017.9
20260902063113 21 0 0.0 0.0 0.00 0.00 0.00 96 1017.9
20260902061622 21 0 0.0 0.0 0.00 0.00 0.00 96 1018.1
20260902060111 21 0 0.0 0.0 0.00 0.00 0.00 95 1018.0
20260902054602 21 0 0.0 0.0 0.00 0.00 0.00 95 1018.0
20260902053113 21 0 0.0 0.0 0.00 0.00 0.00 95 1018.1
20260902051615 21 0 0.0 0.0 0.00 0.00 0.00 95 1018.0
20260902050107 22 0 0.0 0.0 0.00 0.00 0.00 95 1018.0
20260902044636 22 0 0.0 0.0 0.00 0.00 0.00 94 1018.1
20260902043105 22 0 0.0 0.0 0.00 0.00 0.00 94 1018.0
20260902041604 22 0 0.0 0.0 0.00 0.00 0.00 94 1018.0
20260902040111 22 0 0.0 0.0 0.00 0.00 0.00 94 1018.1
20260902034603 23 0 0.0 0.0 0.00 0.00 0.00 93 1018.0
20260902033104 23 0 0.0 0.0 0.00 0.00 0.00 93 1018.0
20260902031617 23 0 0.0 0.0 0.00 0.00 0.00 92 1018.0
20260902030108 23 0 0.0 0.0 0.00 0.00 0.00 91 1018.0
20260902024612 24 0 0.0 0.0 0.00 0.00 0.00 91 1018.0
20260902023107 24 0 0.0 0.0 0.00 0.00 0.00 92 1018.0
20260902021603 24 0 0.0 0.0 0.00 0.00 0.00 91 1018.1
20260902014603 25 0 0.0 0.0 0.00 0.00 0.00 90 1018.1
20260902013110 25 0 0.0 0.0 0.00 0.00 0.00 89 1018.1
20260902011606 26 0 0.0 0.0 0.00 0.00 0.00 89 1017.9
20260902010106 26 0 0.0 0.0 0.00 0.00 0.00 87 1017.8
20260902004607 27 0 0.0 0.0 0.00 0.00 0.00 85 1017.7
20260902003109 27 0 0.0 0.0 0.00 0.00 0.00 84 1017.6
20260902001605 28 0 0.0 0.0 0.00 0.00 0.00 81 1017.6
20260902000105 28 0 0.0 0.0 0.00 0.00 0.00 79 1017.7
20260901234608 30 0 0.0 0.0 0.00 0.00 0.00 77 1017.7
20260901233126 30 0 0.0 1.6 0.00 0.00 0.00 75 1017.7
20260901231616 31 0 0.0 3.2 0.00 0.00 0.00 70 1017.9
20260901230110 32 0 0.0 3.2 0.00 0.00 0.00 71 1017.8
20260901224605 32 355 0.0 3.2 0.00 0.00 0.00 63 1017.8
20260901223106 32 0 1.6 6.4 0.00 0.00 0.00 63 1017.8
20260901221612 32 5 1.6 6.4 0.00 0.00 0.00 60 1017.8
20260901220108 32 0 1.6 6.4 0.00 0.00 0.00 60 1017.7
20260901214605 32 343 3.2 6.4 0.00 0.00 0.00 59 1017.7
20260901213107 32 336 3.2 9.7 0.00 0.00 0.00 59 1017.7